Location: Ch�tillon
(48.8024°N, 2.2935°E)
Time: 17:50:07
(UTC+00:00)

DIWATA 2B (PO-101) - Pass Details

Date: 06 July 2022
Orbit: 583 x 599 km, 98.0° (Epoch: 19 August)

Event Time Altitude Azimuth Distance (km) Brightness Sun altitude
Exits shadow 00:44:25 - 126° (SE) 2,017 ? -17.7°
Reaches altitude 10° 00:44:38 10° 124° (SE) 1,940 ? -17.7°
Maximum altitude 00:48:15 28° 66° (ENE) 1,131 ? -17.5°
Drops below altitude 10° 00:51:52 10° 7° (N) 1,952 ? -17.4°
Sets 00:54:16 0° 356° (N) 2,858 ? -17.3°
